Weather History for Pompano Beach, FL

Change the Weather History Date:

Tuesday, December 4, 2012

  Actual Average Record
Temperature  
Mean Temperature 74 °F -  
Max Temperature 78 °F 78 °F 87 °F (1983)
Min Temperature 71 °F 62 °F 44 °F (1954)
Cooling Degree Days 10    
Growing Degree Days 24 (Base 50)    
Moisture  
Dew Point 60 °F    
Average Humidity 62    
Maximum Humidity 78    
Minimum Humidity 48    
Precipitation  
Precipitation 0.01 in - - ()
Sea Level Pressure  
Sea Level Pressure 30.19 in    
Wind  
Wind Speed 13 mph (ENE)    
Max Wind Speed 17 mph    
Max Gust Speed 24 mph    
Visibility 10 miles    
Events Rain    
Averages and records for this station are not official NWS values.
T = Trace of Precipitation, MM = Missing Value Source: NWS Daily Summary

Daily Weather History Graph

Daily Weather History Graph

Search for Another Location

Airport:

Trip Planner

Search our weather history database for the weather conditions in past years. The results will help you decide how hot, cold, wet, or windy it might be!

Date:

Astronomy

Dec. 04, 2012 Rise Set
Actual Time 6:53 AM EST 5:28 PM EST
Civil Twilight 6:28 AM EST 5:53 PM EST
Nautical Twilight 5:59 AM EST 6:21 PM EST
Astronomical Twilight 5:31 AM EST 6:50 PM EST
Moon 10:52 PM EST (12/4) 11:05 AM EST (12/4)
Length of Visible Light 11h 25m
Length of Day
10h 34m
Waning Gibbous, 69% of the Moon is Illuminated
Dec 4
Waning Gibbous
Dec 6
Last Quarter
Dec 13
New
Dec 20
First Quarter
Dec 28
Full

Hourly Weather History & Observations

Time (EST) Temp. Dew Point Humidity Pressure Visibility Wind Dir Wind Speed Gust Speed Precip Events Conditions
12:53 AM 71.1 °F 55.9 °F 59% 30.20 in 10.0 mi East 12.7 mph 20.7 mph N/A   Mostly Cloudy
1:53 AM 71.1 °F 57.9 °F 63% 30.19 in 10.0 mi East 11.5 mph - N/A   Scattered Clouds
2:53 AM 71.1 °F 59.0 °F 66% 30.19 in 10.0 mi ENE 13.8 mph - N/A   Mostly Cloudy
3:53 AM 71.1 °F 60.1 °F 68% 30.18 in 10.0 mi ENE 10.4 mph - N/A   Partly Cloudy
4:53 AM 72.0 °F 60.1 °F 66% 30.17 in 10.0 mi ENE 9.2 mph 23.0 mph N/A   Overcast
5:53 AM 72.0 °F 61.0 °F 68% 30.18 in 10.0 mi ENE 16.1 mph 23.0 mph N/A   Overcast
6:53 AM 72.0 °F 60.1 °F 66% 30.19 in 10.0 mi ENE 16.1 mph 23.0 mph N/A   Clear
7:53 AM 73.0 °F 60.1 °F 64% 30.21 in 10.0 mi East 17.3 mph - N/A   Clear
8:53 AM 73.9 °F 61.0 °F 64% 30.22 in 10.0 mi ENE 17.3 mph 21.9 mph N/A   Partly Cloudy
9:53 AM 73.9 °F 63.0 °F 68% 30.24 in 10.0 mi East 16.1 mph 23.0 mph 0.00 in   Overcast
10:53 AM 73.9 °F 61.0 °F 64% 30.23 in 10.0 mi East 16.1 mph 24.2 mph 0.00 in   Mostly Cloudy
11:53 AM 75.0 °F 57.9 °F 55% 30.23 in 10.0 mi East 12.7 mph 20.7 mph N/A   Mostly Cloudy
12:53 PM 75.9 °F 55.9 °F 50% 30.20 in 10.0 mi ENE 15.0 mph - N/A   Mostly Cloudy
1:53 PM 75.9 °F 55.9 °F 50% 30.18 in 10.0 mi East 12.7 mph - N/A   Scattered Clouds
2:53 PM 78.1 °F 57.0 °F 48% 30.17 in 10.0 mi ENE 10.4 mph - N/A   Scattered Clouds
3:53 PM 75.0 °F 57.9 °F 55% 30.17 in 10.0 mi ENE 10.4 mph - N/A   Mostly Cloudy
4:53 PM 73.9 °F 57.9 °F 57% 30.17 in 10.0 mi ENE 10.4 mph - N/A   Mostly Cloudy
5:53 PM 73.9 °F 57.9 °F 57% 30.17 in 10.0 mi ENE 9.2 mph - N/A   Overcast
6:53 PM 73.9 °F 57.0 °F 55% 30.18 in 10.0 mi ENE 9.2 mph - N/A   Mostly Cloudy
7:53 PM 71.1 °F 64.0 °F 78% 30.19 in 10.0 mi ESE 16.1 mph 24.2 mph 0.00 in Rain Light Rain
8:53 PM 73.0 °F 62.1 °F 68% 30.19 in 10.0 mi ENE 15.0 mph - 0.01 in   Overcast
9:53 PM 73.0 °F 61.0 °F 66% 30.18 in 10.0 mi ENE 11.5 mph - N/A   Overcast
10:53 PM 73.0 °F 62.1 °F 68% 30.17 in 10.0 mi ENE 12.7 mph - N/A   Overcast
11:53 PM 73.0 °F 63.0 °F 71% 30.16 in 10.0 mi East 9.2 mph - N/A   Overcast